Showing default

RAWHIDE-1, 68629

Orbit data source: Space-Track

RAWHIDE-1, 68629 is a payload satellite owned by SMDC (US) in LEO that was launched on Tue, 07 Apr 2026 UTC via an MINOTAUR IV launch vehicle from the Air Force Western Test Range (AFWTR). Payload-class satellites include a variety of spacecraft equipped with specific instruments for various scientific and technological missions. These include communications satellites like Starlink; space stations such as the ISS; scientific satellites like the Hubble; Earth observation satellites from companies like Planet Labs, Umbra, and HawkEye 360; GPS; miniature CubeSats for education and research; and military/defense satellites.

Loading next visibility...
Identifier
68629, 2026-074C
Orbit
LEO
Country
Flag of USUS
Related business
Manufacturer
SMDC?
Mission
Operational spacecraft
Bus & Motor
CUBESAT 6U?, Unknown motor
Mass
10 kg wet, 10 kg dry
Launch date (UTC)
2026-04-07 (1 month ago)
Launch vehicle
MINOTAUR IV
Launch site
Air Force Western Test Range (AFWTR)
Object type
Payload
Rocket body
Debris
Shape & HBR
Unknown shape, 14.5 m
Radar Cross Section
RCS unknown

Expand to show TLE details & history
Last TLE update: 12 hours ago

TLE from 12 hours ago
0 RAWHIDE-1
1 68629U 26074C   26140.42916432  .00006134  00000-0  25820-3 0  9998
2 68629  60.0214 284.7010 0024293 359.1564   0.9471 15.24335008  6559
Epoch: 2026-05-20T10:17Z
TLE epoch observation values (Epoch: 2026-05-20T10:17:59.797Z)
Latitude
-0.00004°
Longitude
-107.88702°
Altitude
477.694 km
Speed
7.637 km/s
True Right ascension
18h 58m 48s
True Declination
0° 00' 00"
Sunlit
Object was in full shadow at epoch
Visualization orbit readout
Latitude
Unknown
Longitude
Unknown
Altitude
Unknown
Speed
Unknown
Apparent Right ascension
Unknown
Apparent Declination
Unknown
Sunlit
N/A
Visualization observer readout
Local Sidereal Time
07:03:43
Azimuth
Unknown
Elevation
Unknown
Doppler factor
Unknown
Orbital elements
Apogee altitude
508.673 km
Perigee altitude
475.293 km
Semi-major axis
6,870.12 km
Eccentricity
0.00243
Inclination
60.0214°
RAAN
284.701°
Arg. of periapsis
359.1564°
True anomaly
0.95172°
Mean anomaly
0.9471°
Eccentric anomaly
0.94941°
Mean motion
3.81151 °/min
Orbital period
94.45 mins
BSTAR
0.0002582
Loading maneuver chart data...
Computing Atmospheric mass density...
Loading historical data...
Loading historical data...
Loading historical data...
Loading historical data...
Loading historical data...
Loading historical data...
Loading historical data...

Documentation

Showing up to 5 results
|